Inquirer Daily News

Weather

Get conditions and forecasts for any City, State, ZIP code or Country:  
Trenton, NJ
on Sunday, December 23, 2012

Sunday
Previous Day Next Day
Daily Summary
 ActualAverageRecord
Temperature
Mean Temperature °F 33°F  
Max Temperature 45°F 41°F 70°F (1891)
Min Temperature 32°F 25°F 4°F (1989)
Degree Days
Heating Degree Days 26 32  
Month to date heating degree days 497 657  
Since 1 July heating degree days 1504 1633  
Cooling Degree Days 0 0  
Month to date cooling degree days 0 0  
Year to date cooling degree days 1234 965  
Moisture
Dew Point 20°F   
Average Humidity 46    
Maximum Humidity 64    
Minimum Humidity 28    
Precipitation
Precipitation 0.00 in 0.12 in 1.55 in (1907)
Month to date precipitation 2.72 2.98  
Year to date precipitation 35.95 45.72  
Wind
Wind Speed 7 mph   
Max Wind Speed 16 mph   
Max Gust Speed 23 mph   
Visibility 10 miles   
Events     

Key: T is trace of precipitation, MM is missing value
Source: NWS Daily Summary
Time(EST)TemperatureDew PointHumidity Pressure Visibility Wind DirectionWind SpeedGust SpeedPrecipitationEvents Conditions
12:53 AM 36.0°F 21.9°F 57% 29.88 in 10.0 miles NW 15.0 mph 20.7 mph N/A   Overcast
1:53 AM 36.0°F 21.9°F 57% 29.91 in 10.0 miles WNW 8.1 mph 21.9 mph N/A   Overcast
2:53 AM 36.0°F 21.9°F 57% 29.94 in 10.0 miles WNW 11.5 mph - N/A   Overcast
3:53 AM 35.1°F 21.9°F 59% 29.94 in 10.0 miles WNW 10.4 mph 16.1 mph N/A   Overcast
4:53 AM 35.1°F 21.9°F 59% 29.94 in 10.0 miles West 5.8 mph - N/A   Overcast
5:53 AM 35.1°F 21.9°F 59% 29.96 in 10.0 miles West 10.4 mph - N/A   Overcast
6:53 AM 34.0°F 21.9°F 61% 29.97 in 10.0 miles West 6.9 mph - N/A   Mostly Cloudy
7:53 AM 33.1°F 21.9°F 64% 29.98 in 10.0 miles West 8.1 mph - N/A   Mostly Cloudy
8:53 AM 34.0°F 23.0°F 64% 29.99 in 10.0 miles West 8.1 mph - N/A   Partly Cloudy
9:53 AM 36.0°F 23.0°F 59% 29.98 in 10.0 miles West 9.2 mph - N/A   Clear
10:53 AM 37.9°F 21.0°F 51% 29.96 in 10.0 miles WNW 9.2 mph - N/A   Clear
11:53 AM 39.0°F 19.9°F 46% 29.92 in 10.0 miles West 9.2 mph - N/A   Clear
12:53 PM 41.0°F 15.1°F 35% 29.89 in 10.0 miles WNW 12.7 mph - N/A   Clear
1:53 PM 43.0°F 15.1°F 32% 29.87 in 10.0 miles WNW 9.2 mph - N/A   Clear
2:53 PM 44.1°F 14.0°F 30% 29.87 in 10.0 miles West 8.1 mph - N/A   Clear
3:53 PM 44.1°F 14.0°F 30% 29.87 in 10.0 miles WNW 5.8 mph - N/A   Clear
4:53 PM 37.9°F 18.0°F 45% 29.88 in 10.0 miles SW 6.9 mph - N/A   Clear
5:53 PM 39.0°F 19.9°F 46% 29.88 in 10.0 miles Calm Calm - N/A   Clear
6:53 PM 37.0°F 19.9°F 50% 29.91 in 10.0 miles WSW 4.6 mph - N/A   Clear
7:53 PM 37.0°F 19.9°F 50% 29.91 in 10.0 miles West 3.5 mph - N/A   Clear
8:53 PM 35.1°F 19.9°F 54% 29.91 in 10.0 miles NNW 3.5 mph - N/A   Clear
9:53 PM 33.1°F 19.9°F 59% 29.93 in 10.0 miles NW 3.5 mph - N/A   Clear
10:53 PM 34.0°F 21.0°F 59% 29.94 in 10.0 miles NW 4.6 mph - N/A   Clear
11:53 PM 33.1°F 21.9°F 64% 29.95 in 10.0 miles Calm Calm - N/A   Clear
Astronomy
Sunrise:07:19 AM (EST) Moon Rise:01:27 PM (EST)12/23
Sunset:04:37 PM (EST) Moon Set:02:59 AM (EST)12/23
Moon Phase
Dec. 23 Dec. 28 Jan. 04 Jan. 11 Jan. 18

Copyright © 2014 The Weather Underground, Inc.